Skip Page Navigation
NASA JPL Caltech
NASA Logo - Jet Propulsion Laboratory + View the NASA Portal
+ Center for Near-Earth Object Studies
JPL Home Earth Solar System Stars & Galaxies Technology
JPL Solar System Dynamics
BODIES ORBITS EPHEMERIDES TOOLS PHYSICAL DATA DISCOVERY FAQ SITE MAP
JPL Small-Body Database Browser
Search: [ help ]  
150516 (2000 RD32)
Classification: Main-belt Asteroid          SPK-ID: 2150516
Ephemeris | Orbit Diagram | Orbital Elements | Mission Design | Physical Parameters | Discovery Circumstances ]

[ show orbit diagram ]
Orbital Elements at Epoch 2459396.5 (2021-Jul-01.0) TDB
Reference: JPL 24 (heliocentric ecliptic J2000)
 Element Value Uncertainty (1-sigma)   Units 
e .2158299779764881 4.0341e-08  
a 2.761069474569406 1.6618e-08 au
q 2.165147910681538 1.1574e-07 au
i 6.746173581667706 3.9133e-06 deg
node 233.4923730796298 3.8696e-05 deg
peri 98.17744392214678 3.962e-05 deg
M 213.5961019983816 1.0149e-05 deg
tp 2460077.997972207001
(2023-May-13.49797221)
5.022e-05 TDB
period 1675.770067213705
4.59
1.5129e-05
4.142e-08
d
yr
n .2148266084013365 1.9394e-09 deg/d
Q 3.356991038457275 2.0204e-08 au
  Orbit Determination Parameters
   # obs. used (total)      766  
   data-arc span      8039 days (22.01 yr)  
   first obs. used      1999-05-10  
   last obs. used      2021-05-13  
   planetary ephem.      DE441  
   SB-pert. ephem.      SB441-N16  
   condition code      0  
   norm. resid. RMS      .48975  
   source      ORB  
   producer      Otto Matic  
   solution date      2021-Jul-09 01:45:10  

Additional Information
 Earth MOID = 1.16674 au 
 Jupiter MOID = 2.08416 au 
 T_jup = 3.297 
[ hide covariance matrix ]
Orbital Elements at Epoch 2457426.5 (2016-Feb-08.0) TDB
Reference: JPL 24 (heliocentric ecliptic J2000)
 Element Value Uncertainty (1-sigma)   Units 
e .2178135442919737 4.0651e-08  
q 2.158680298918567 1.1677e-07 au
tp 2456723.085306385164
(2014-Mar-06.58530639)
4.1479e-05 TDB
node 233.7244519299364 3.8873e-05 deg
peri 97.43905856367896 3.9729e-05 deg
i 6.730230629160879 3.9073e-06 deg
  Orbit Determination Parameters
   # obs. used (total)      766  
   data-arc span      8039 days (22.01 yr)  
   first obs. used      1999-05-10  
   last obs. used      2021-05-13  
   planetary ephem.      DE441  
   SB-pert. ephem.      SB441-N16  
   condition code      0  
   norm. resid. RMS      .48975  
   source      ORB  
   producer      Otto Matic  
   solution date      2021-Jul-09 01:45:10  

Additional Information
 Jupiter MOID = 2.08416 au 
 T_jup = 3.297 
Orbit Covariance (6×6)
  e q tp node peri i
e 1.652469248462731E-15 -4.720308799825669E-15 4.147296009204393E-14 1.088183918261648E-14 -2.861047800969955E-14 -5.568053745871832E-16
q -4.720308799825669E-15 1.36362220621838E-14 -1.50012378249033E-13 -2.774486616895241E-14 8.511096781535928E-14 1.934091074380837E-15
tp 4.147296009204393E-14 -1.50012378249033E-13 1.72052329968569E-9 5.873612567964624E-13 3.650413301008208E-10 8.235811369256318E-13
node 1.088183918261648E-14 -2.774486616895241E-14 5.873612567964624E-13 1.511135263399312E-9 -1.50047724718123E-9 -2.894168223084384E-12
peri -2.861047800969955E-14 8.511096781535928E-14 3.650413301008208E-10 -1.50047724718123E-9 1.578422057003287E-9 3.058714577534923E-12
i -5.568053745871832E-16 1.934091074380837E-15 8.235811369256318E-13 -2.894168223084384E-12 3.058714577534923E-12 1.526666566471705E-11

Ephemeris | Orbit Diagram | Orbital Elements | Mission Design | Physical Parameters | Discovery Circumstances ]

Physical Parameter Table
Parameter Symbol Value Units Sigma Reference Notes
absolute magnitude H 15.20   n/a MPCxxxxx  

150516 (2000 RD32)          Discovered 2000-Sep-01 by LINEAR at Socorro
Reference: 20070303/Numbers.arcLast Updated: 2007-03-07
Ephemeris | Orbit Diagram | Orbital Elements | Mission Design | Physical Parameters | Discovery Circumstances ]
ABOUT SSD CREDITS/AWARDS PRIVACY/COPYRIGHT GLOSSARY LINKS
FirstGov 2021-Jul-24 03:29 UT
(server date/time)  
NASA Home Page
Site Manager:   Ryan S. Park
Webmaster  Alan B. Chamberlin